GFSSW_con_3kmhel_243.txt.gz
Helicity
13 11 9 10 10 11 20 26 49 78 99 105 88 72 70 45 44 102 115 73 27 7 72 25 87 71 103 109 99 112 160 133 110 139 70 14 125 -26 -2 78 132 190 228 155 206
13 11 11 10 9 7 23 45 60 90 116 98 73 70 53 46 98 112 37 11 25 16 13 76 104 91 85 116 111 138 170 112 104 128 122 162 136 50 -33 59 176 133 141 166 205
12 10 9 12 10 13 30 51 70 114 112 94 80 54 47 63 114 86 13 9 15 48 9 8 26 49 67 89 101 103 131 93 123 86 79 119 118 171 3 63 133 230 220 186 149
8 10 15 18 19 24 36 54 90 112 109 81 62 54 26 64 237 29 -12 -23 14 39 31 33 72 46 85 89 79 107 75 69 84 72 82 93 114 113 116 137 176 247 178 145 187
7 12 15 19 28 30 50 68 99 109 103 67 44 41 57 73 42 11 -16 6 32 48 30 19 54 49 65 113 67 68 90 80 54 98 65 54 81 90 151 182 148 259 277 152 173
9 14 19 24 30 38 60 76 102 103 87 57 51 48 74 107 25 32 42 46 63 53 29 8 7 52 100 188 127 130 89 62 94 94 51 -14 12 26 125 81 149 282 396 302 210
11 18 24 29 39 48 64 72 90 74 74 64 71 60 74 40 46 33 55 96 65 83 52 3 4 -33 69 173 105 102 113 80 34 82 38 -19 8 -2 82 119 224 298 317 345 253
22 24 34 37 56 66 65 75 72 111 75 65 68 66 50 46 72 59 61 61 91 76 53 -8 5 22 25 86 74 97 54 64 64 46 18 -33 -75 -67 42 76 270 325 239 332 273
25 30 48 52 78 100 82 56 70 63 -17 44 70 70 22 29 65 54 95 74 87 79 55 25 10 22 76 78 78 108 89 74 123 52 44 -13 -131 -23 -0 -53 -29 211 238 281 304
31 37 55 75 111 144 105 20 94 56 19 22 47 59 32 86 90 75 81 77 89 86 55 25 16 40 92 93 75 74 105 100 82 135 24 -8 -18 -44 -38 30 15 98 178 221 309
35 43 47 92 135 189 167 77 66 142 104 76 40 36 99 121 93 71 64 82 90 81 41 26 9 31 63 110 110 159 79 61 110 113 99 -11 -12 -5 -30 59 60 42 164 218 333
36 45 42 98 154 166 176 142 142 62 102 37 45 77 150 109 23 28 53 51 73 38 43 22 -7 -11 -25 69 69 89 99 93 87 99 64 82 13 29 24 38 75 48 93 249 357
40 45 52 93 207 186 186 162 29 32 140 56 51 43 63 68 2 14 8 40 72 49 15 46 -37 -9 14 37 72 79 73 70 104 158 93 106 63 36 44 55 92 16 -93 115 302
48 56 78 80 204 179 172 73 25 46 317 133 37 56 68 63 47 35 -7 59 48 50 35 40 -17 -7 13 29 62 76 62 88 68 134 123 116 1 70 38 45 87 30 91 -14 197
54 68 105 169 173 225 157 48 16 37 351 85 43 67 59 72 60 45 25 28 58 71 47 21 -16 -3 6 37 34 109 51 55 59 110 189 182 77 93 69 63 76 71 101 -103 78
63 77 128 191 181 178 85 52 43 207 242 89 66 54 39 115 44 60 37 23 38 24 46 88 33 -10 -14 28 37 53 96 106 88 112 160 172 117 106 64 47 28 67 20 -36 62
65 88 173 169 178 104 75 104 169 292 90 88 65 65 63 85 85 59 -16 -18 -42 32 17 40 18 -12 -4 45 61 77 103 235 192 144 160 139 112 134 92 59 56 43 31 25 169
77 130 169 161 137 83 99 114 341 97 103 82 72 59 93 78 89 84 29 -19 -20 4 72 36 -4 -5 -0 35 85 93 86 163 170 168 179 144 141 139 112 157 74 83 60 6 140
112 148 177 175 93 65 103 192 139 112 56 70 50 92 98 113 111 71 35 3 -4 -31 20 46 35 24 -0 2 46 76 141 93 123 205 168 201 158 132 209 203 211 115 85 36 72
141 157 146 99 60 78 119 158 95 59 50 93 105 119 110 99 93 109 74 11 -2 16 50 42 56 47 30 2 23 83 76 152 169 198 197 175 164 220 339 239 215 204 87 70 56
130 123 125 77 72 128 152 71 60 42 71 97 106 102 117 103 136 109 66 27 -24 -1 15 37 73 69 62 -16 47 100 97 141 149 190 223 180 186 142 267 171 152 186 147 74 63
101 122 110 69 115 86 72 46 24 52 74 115 129 157 117 104 111 107 79 43 -29 -29 18 15 27 97 38 2 -12 86 60 90 176 227 207 169 209 113 104 134 113 178 141 98 89
86 50 101 68 70 40 30 58 64 69 76 83 104 125 108 117 109 104 60 25 -3 -40 -11 -9 7 4 -12 37 12 81 95 55 126 160 214 218 181 173 196 213 251 191 176 85 99
75 127 70 111 66 90 82 91 83 57 78 85 116 133 90 110 106 82 51 19 -27 6 -7 14 16 38 41 32 -24 17 104 82 48 123 191 175 166 272 314 234 264 308 345 120 150
63 65 55 28 71 99 69 62 74 68 62 63 99 119 120 118 118 117 76 31 39 -10 -14 -2 -13 48 150 85 63 31 109 126 48 55 29 77 85 146 219 233 268 253 325 285 239
54 52 53 55 72 87 76 68 77 57 60 51 84 85 132 150 145 135 65 52 31 -0 -12 11 -7 46 10 9 92 193 164 182 147 85 42 20 103 89 149 154 241 214 344 331 303
29 45 52 28 79 101 66 53 44 63 35 60 68 103 124 95 107 139 137 126 134 79 49 15 21 40 8 85 40 146 207 200 131 163 132 71 53 130 119 121 220 226 291 314 306

GFSSW_con_3kmhel_249.txt.gz
Helicity
17 10 9 7 7 -4 1 9 29 48 50 67 58 72 48 -10 7 54 127 35 37 45 28 28 65 55 64 53 56 36 108 58 77 86 97 131 133 164 156 95 -14 56 88 120 208
14 12 11 9 9 2 8 22 46 59 61 63 61 45 32 -25 61 129 -3 23 28 50 45 55 36 73 87 72 61 77 108 70 21 59 140 157 126 78 64 40 86 87 103 177 106
16 17 11 5 5 6 20 44 64 56 57 38 37 22 -1 14 99 93 3 2 0 28 59 70 60 35 44 73 48 69 57 80 99 67 -151 84 142 91 32 38 18 92 160 207 183
16 16 16 8 4 9 40 59 66 57 43 36 25 5 10 37 230 48 -11 -4 -3 54 70 78 69 53 27 36 65 52 33 6 -19 68 82 17 150 78 50 69 51 97 79 102 135
22 20 19 10 8 18 53 68 69 62 59 38 32 32 55 148 112 64 8 18 61 73 77 83 88 48 24 13 4 18 31 54 15 6 13 57 67 70 39 55 57 177 60 40 117
25 22 25 14 12 24 55 66 56 58 68 43 53 48 85 235 68 66 66 76 88 87 77 80 77 77 -3 -59 -4 53 31 40 48 57 -7 48 56 -23 -65 48 123 163 185 30 62
28 26 29 21 19 30 51 57 56 63 54 72 55 47 81 116 76 72 61 93 105 111 80 74 68 69 5 -93 45 42 40 61 29 29 27 51 72 -12 -83 -79 89 215 197 114 83
29 33 33 31 26 32 41 42 66 60 26 39 75 52 81 72 65 89 49 71 88 101 84 63 61 83 2 -33 17 54 29 62 64 36 29 14 48 -7 -47 -110 47 297 244 153 113
33 30 36 45 35 30 24 31 103 92 90 63 57 73 95 66 53 34 70 59 66 71 74 74 76 61 -12 -100 -8 38 50 32 61 62 35 20 28 -21 -50 -82 -157 218 283 222 139
30 28 41 55 73 45 4 96 149 80 14 49 63 86 52 110 110 51 95 53 51 63 55 60 51 39 2 10 8 18 53 20 36 89 32 -9 -29 -3 -31 -115 -190 109 260 276 198
28 29 38 66 122 94 57 83 141 128 171 48 53 77 120 63 36 26 91 20 50 71 73 56 74 27 17 -5 4 47 50 62 61 37 95 16 13 -8 -90 -115 -143 116 401 270 220
32 35 45 62 171 124 104 87 95 77 148 55 59 60 131 110 77 78 47 17 57 47 42 51 63 54 20 30 -27 62 33 48 82 73 38 29 16 -9 -49 -83 -216 -70 167 203 266
35 42 48 62 162 119 90 88 28 68 162 58 56 77 87 88 68 81 35 18 49 54 47 54 53 32 -5 6 -34 39 75 5 24 91 9 52 16 -32 -1 -4 -87 -73 87 207 285
35 51 52 63 136 111 116 57 44 76 237 123 84 99 86 86 112 73 43 53 34 49 27 50 52 32 12 -1 1 58 73 63 32 33 75 54 30 -21 -20 1 27 0 178 220 314
44 69 98 117 117 139 90 56 72 77 221 103 108 69 99 129 89 101 62 51 69 20 28 43 43 44 50 -3 24 29 70 71 64 36 84 62 47 43 -15 11 20 44 102 173 216
61 105 104 107 103 138 75 105 65 114 165 138 129 127 109 93 85 103 81 41 51 18 23 58 38 41 66 61 7 0 41 33 76 63 98 96 61 28 46 47 22 18 159 181 133
66 155 107 92 80 74 90 124 87 128 136 126 149 122 102 111 96 112 93 101 95 107 75 30 27 25 28 -11 0 9 89 92 105 123 115 101 67 51 107 108 68 7 101 209 109
77 149 103 98 83 91 105 127 161 84 106 128 129 100 147 106 118 88 125 135 68 51 52 36 8 20 13 -14 52 104 74 85 92 116 114 104 103 68 84 81 93 -6 70 55 25
104 118 127 99 75 79 151 129 60 85 107 112 96 148 110 114 127 98 119 108 77 24 66 30 23 40 21 15 50 49 83 78 66 102 131 120 124 63 219 241 283 193 52 60 39
100 130 89 66 69 101 141 72 72 94 90 105 145 170 128 128 134 153 112 90 61 31 59 34 24 69 44 3 40 45 44 113 119 124 140 120 123 174 275 340 280 236 122 117 81
110 149 97 60 89 145 112 46 84 84 91 114 114 125 125 132 125 129 97 75 42 46 24 25 44 44 2 1 52 52 4 100 112 103 126 109 131 158 239 269 224 188 144 90 42
112 141 92 71 148 97 78 62 98 115 73 95 123 118 120 107 100 100 103 106 51 26 15 24 41 49 60 50 -23 68 8 108 160 154 101 57 180 141 173 189 180 204 187 112 0
156 130 90 95 119 90 72 103 106 121 102 90 90 91 110 96 113 88 88 59 31 2 7 22 15 23 -7 -4 -22 71 71 37 126 152 92 49 185 131 173 162 208 249 310 249 49
148 150 145 135 90 111 110 122 129 64 88 63 76 86 80 80 87 77 101 44 -5 6 -16 27 10 16 20 46 10 83 36 -2 91 148 240 58 53 174 178 200 284 356 393 323 291
117 139 103 147 135 133 126 121 143 129 71 55 73 99 79 83 82 110 84 89 18 7 -1 16 -3 20 37 -9 15 28 86 21 50 122 209 137 65 178 232 185 231 302 354 366 388
149 142 137 146 119 136 125 122 143 106 84 65 85 61 79 100 118 106 117 66 40 0 1 0 -13 -12 -27 -10 22 15 166 56 -19 101 84 164 88 184 212 171 175 275 332 377 379
70 87 123 102 125 150 108 112 131 115 42 36 48 77 60 76 98 96 90 59 58 25 26 13 6 -25 -47 13 20 37 147 127 0 38 60 124 137 178 219 181 126 225 312 346 386

GFSSW_con_3kmhel_252.txt.gz
Helicity
17 15 9 3 -4 9 18 26 35 50 50 23 7 -8 -57 -44 -20 39 165 48 30 22 10 20 41 67 54 43 17 59 103 71 39 53 48 52 73 142 29 57 48 106 160 183 194
19 15 6 2 -1 14 27 39 52 61 37 17 -9 -27 -40 -19 34 105 8 -4 15 19 38 51 55 35 40 46 39 45 76 78 47 30 61 231 193 164 55 16 269 77 48 75 170
17 19 12 8 7 26 36 50 60 52 33 16 -6 -30 -4 -12 51 104 0 1 11 36 64 52 44 71 39 23 17 13 26 60 73 117 -7 9 140 218 205 79 104 76 92 88 177
16 15 14 14 16 33 49 59 49 50 33 27 -2 -10 -16 -10 145 39 -7 1 19 68 71 75 51 65 50 7 -10 19 43 75 76 39 68 33 8 265 177 138 92 112 66 30 141
18 20 18 19 17 43 54 55 56 65 40 19 6 2 0 123 114 2 7 29 66 84 92 82 71 54 26 -13 -28 -31 35 2 43 28 41 33 -32 81 172 141 67 178 125 -18 51
22 23 19 18 18 46 50 49 64 52 26 14 17 -17 43 244 17 8 26 32 62 79 68 89 94 46 17 -13 -34 -28 49 40 11 35 42 -5 9 1 110 55 14 86 197 84 55
20 23 21 23 16 38 41 34 51 32 15 20 38 14 90 110 41 34 1 7 51 52 56 86 79 59 23 -70 11 36 -6 6 14 21 24 15 14 68 82 -19 61 55 212 141 117
25 22 20 26 7 28 27 54 71 48 19 12 38 18 89 76 45 64 -3 16 29 66 61 60 65 50 31 -13 -4 -11 4 24 36 21 17 14 71 21 -24 -62 -69 22 120 163 135
23 24 28 36 21 17 36 91 72 44 52 11 19 44 97 44 44 23 23 22 23 51 59 55 53 43 13 -50 -10 -12 -5 36 48 42 48 23 48 24 -23 -76 -133 -49 59 103 193
28 27 40 51 45 8 33 119 143 76 2 21 31 58 87 85 28 64 20 14 35 25 68 63 58 44 18 -30 -35 -61 -14 53 67 75 106 30 75 50 -3 -42 -103 -175 -41 113 173
30 24 49 63 67 20 52 86 125 158 121 48 1 64 67 11 42 49 36 17 26 36 56 57 54 49 -6 -14 -24 -23 -44 30 52 107 127 38 48 -16 -5 -18 -39 -92 47 107 246
28 24 44 75 106 50 104 137 123 88 174 35 21 47 59 56 94 45 12 81 61 80 18 57 71 23 11 15 -36 -45 -42 20 71 36 156 65 51 -4 -2 -37 -52 -23 70 299 220
30 29 34 71 111 88 113 96 45 70 133 67 47 60 66 70 135 68 42 40 85 77 35 42 40 23 31 3 -6 -32 38 66 94 112 37 95 39 8 -6 -53 -48 -6 216 283 234
36 42 42 65 82 88 104 59 66 60 202 115 54 113 66 33 145 69 53 79 82 65 18 44 28 27 43 -1 61 -30 87 72 68 100 102 100 37 -15 -30 -68 7 85 175 223 223
42 58 72 103 106 98 73 69 81 64 177 103 118 41 63 113 108 78 37 58 94 38 14 53 22 29 25 -10 58 -13 102 65 58 67 120 94 96 68 -2 -23 2 47 143 337 216
51 88 61 88 96 111 71 89 63 93 198 152 108 100 95 86 124 46 73 36 71 67 27 15 24 25 31 -5 -38 47 78 10 47 90 105 106 130 17 54 56 94 84 154 265 90
61 134 58 65 81 66 81 98 94 151 138 131 114 76 69 96 125 98 110 122 123 118 141 5 24 31 4 -52 -34 76 105 54 83 126 114 101 118 60 89 66 53 75 132 285 224
82 94 84 89 77 86 82 92 157 138 108 108 85 54 98 104 135 81 96 138 86 63 73 50 47 4 -18 -60 69 111 112 85 107 139 88 89 83 59 75 69 60 42 123 89 127
78 92 97 68 84 69 70 128 118 117 98 83 62 75 92 123 109 97 116 105 82 50 95 21 1 -1 2 -12 55 75 125 86 100 92 140 86 54 40 109 154 163 146 107 198 328
82 105 93 51 84 66 117 117 114 94 79 76 98 107 95 100 107 99 98 101 76 9 7 25 15 28 2 16 21 53 86 136 102 191 142 83 73 152 162 227 208 143 146 145 292
96 95 92 59 71 118 124 118 121 88 66 88 108 99 96 116 105 95 77 80 51 27 7 12 17 8 8 6 72 114 74 118 127 121 203 111 63 134 191 157 180 127 124 98 209
100 84 77 59 115 106 102 111 109 93 72 97 103 95 94 98 98 96 83 80 49 0 -4 21 16 9 4 -7 36 51 64 105 148 142 126 137 81 77 207 176 167 135 131 121 165
89 92 81 63 107 105 99 118 110 125 110 101 101 85 100 95 94 82 73 56 6 7 2 1 15 -3 7 27 8 29 60 128 144 154 114 165 82 85 221 204 241 226 262 247 270
85 94 111 122 89 116 115 122 132 101 117 84 79 78 88 92 95 72 75 56 -15 16 -16 5 -13 -7 -17 -14 57 121 66 85 112 131 203 105 108 149 252 253 352 347 354 300 284
96 105 101 113 106 125 113 124 133 124 108 83 100 99 84 85 74 78 79 41 24 15 6 -2 -27 -7 -21 -4 9 52 51 41 80 141 129 122 88 155 217 191 244 298 324 330 310
111 119 122 133 123 118 106 119 118 120 111 118 111 81 68 82 88 67 59 67 60 11 16 -2 -22 -15 -23 14 26 16 136 63 68 115 135 150 98 146 154 113 141 245 344 336 328
78 90 111 112 108 104 105 119 119 115 77 60 82 78 57 59 67 33 7 -3 6 24 22 -2 -4 -11 -29 -8 2 10 130 108 -19 13 88 133 146 183 201 143 117 171 302 345 340

GFSSW_con_3kmhel_255.txt.gz
Helicity
9 8 2 10 24 30 31 30 28 10 2 -1 2 -22 -55 -91 -123 19 115 58 38 10 3 38 38 42 43 54 18 -19 85 65 26 61 43 75 72 115 25 -29 132 191 284 105 175
11 11 6 14 23 31 39 36 24 9 12 22 3 -5 -41 -68 -70 119 65 14 7 13 27 43 53 59 68 34 36 4 30 -7 38 47 89 93 44 75 157 6 108 132 127 117 80
10 14 11 19 25 39 42 31 10 27 34 35 1 -8 -29 -100 -86 135 41 13 15 20 45 38 56 59 56 28 18 -21 -5 9 72 40 -68 94 112 -13 152 222 40 100 186 143 142
12 13 15 20 30 41 43 29 28 50 55 27 5 -32 -60 -75 26 94 17 16 15 43 43 48 58 64 81 61 14 -26 -53 -39 75 127 44 -64 123 57 130 173 112 58 71 65 89
12 12 16 21 38 40 43 27 30 53 39 18 -0 -45 -65 54 125 59 23 22 16 43 57 68 49 84 74 18 6 -23 -36 -69 43 52 107 41 22 54 93 54 219 40 30 87 78
17 17 15 21 42 42 35 12 25 47 29 25 2 -43 15 144 39 31 13 21 36 47 54 62 80 66 66 24 -4 -18 -50 -4 33 12 1 38 12 -26 79 69 97 111 87 136 59
19 17 18 21 41 38 13 16 38 44 30 26 17 10 21 118 55 49 18 30 41 56 59 47 60 62 38 -19 2 8 -6 18 36 -19 1 4 22 3 19 77 9 38 82 88 115
20 19 25 21 26 27 3 28 50 60 54 6 26 23 66 137 48 74 49 10 28 53 60 37 41 35 48 20 16 45 58 -0 35 -0 -2 -11 49 13 13 4 22 53 54 58 142
19 20 29 22 9 16 4 40 59 55 35 2 15 33 91 60 56 45 42 38 25 45 71 34 49 35 20 -21 -9 2 -31 25 18 48 66 -4 57 -11 37 -12 16 25 -32 14 101
20 22 29 26 12 3 -1 54 53 66 28 24 18 18 131 60 40 43 7 43 71 28 62 54 35 62 63 -4 -26 -67 -37 37 97 44 53 33 63 40 30 34 30 -47 -72 -23 166
20 21 27 32 27 1 20 26 48 117 156 95 22 51 47 16 21 34 28 32 66 44 71 60 48 69 45 13 -24 -43 -40 4 36 44 85 53 51 -2 10 31 26 -43 4 -53 160
18 14 22 36 44 10 46 80 119 121 191 52 39 38 51 53 82 77 19 83 93 118 36 84 132 38 31 22 -11 -39 -50 -40 52 48 125 68 54 -30 -8 -33 6 11 -15 3 98
27 14 23 29 47 15 96 98 77 86 153 98 65 63 42 71 114 78 51 35 91 107 59 53 51 31 37 27 -26 -31 -51 51 85 70 107 78 36 3 -23 -14 -17 -3 -1 37 179
33 22 21 27 -6 56 83 57 78 68 190 98 67 129 68 25 96 83 53 68 108 90 41 43 34 29 24 21 -28 -24 -16 82 92 63 85 40 24 10 -38 -13 39 62 41 155 181
36 34 39 51 52 70 69 74 71 61 165 120 103 52 59 101 63 59 69 63 139 67 48 77 9 23 39 -21 -18 -26 79 63 71 71 116 10 66 155 118 100 98 89 153 255 213
53 48 18 46 72 77 64 89 70 118 201 154 119 94 75 79 95 45 72 74 75 81 25 7 38 35 30 20 27 119 50 44 56 65 94 103 31 118 98 127 89 54 86 195 286
63 86 58 52 72 67 73 84 119 169 125 115 116 88 65 69 89 73 97 113 117 133 113 10 70 10 -5 -54 16 87 66 24 36 81 71 99 2 84 69 108 75 27 150 288 273
68 42 85 77 53 57 66 84 164 145 123 116 92 66 127 102 77 55 79 104 109 80 66 62 39 -7 -4 -19 11 111 91 61 76 77 54 92 31 27 48 88 77 46 124 293 371
64 67 78 56 54 40 61 136 134 134 118 87 68 87 117 109 74 58 108 99 71 63 110 47 12 -8 -0 -23 18 49 58 86 105 90 99 49 51 110 131 193 177 106 159 371 317
50 70 91 33 48 37 104 116 116 117 96 95 104 120 108 92 91 81 93 101 55 20 26 30 28 7 -0 11 43 58 84 98 110 101 55 33 73 164 182 226 222 142 182 253 285
47 58 91 48 58 97 102 113 116 115 92 109 105 91 103 111 59 71 76 93 53 20 -11 29 41 19 10 10 85 98 65 106 121 91 180 55 64 149 144 160 212 156 158 210 152
61 85 77 45 107 93 98 98 99 110 96 103 94 89 89 66 72 64 75 72 33 10 32 39 23 22 24 31 10 61 70 120 128 164 160 150 71 100 151 152 173 188 188 228 223
87 109 76 54 105 100 92 100 98 99 110 112 119 99 94 59 84 86 77 68 38 28 15 9 7 5 44 29 37 59 95 114 146 172 94 244 57 48 162 170 228 220 218 290 389
84 105 111 104 80 105 118 100 101 94 117 103 101 83 92 74 78 79 64 74 24 30 1 -4 1 4 -8 -1 51 68 82 102 118 138 189 101 100 110 218 229 309 316 279 324 346
87 114 95 118 114 128 95 94 119 127 97 85 102 104 93 92 82 87 80 56 59 42 16 11 -0 -17 -14 10 7 38 39 80 94 155 98 152 96 82 181 224 280 269 282 308 324
94 109 118 131 119 115 84 103 132 122 102 116 106 81 58 90 94 72 59 83 82 37 19 4 11 -29 4 31 28 11 64 87 52 102 107 116 65 95 133 121 239 224 261 275 353
103 108 109 115 117 111 112 108 114 96 82 76 85 63 69 82 62 40 34 29 32 33 44 12 6 -33 -31 22 8 -13 67 71 46 39 119 102 135 155 184 172 150 187 206 286 301

GFSSW_con_3kmhel_258.txt.gz
Helicity
2 2 5 16 30 38 40 38 26 2 1 6 -13 -19 -57 -82 -86 -40 121 63 32 14 0 17 26 52 46 56 48 68 100 86 25 50 42 71 60 57 14 -92 72 167 208 325 386
4 5 5 20 34 43 48 40 27 17 26 17 4 -9 -38 -79 -22 148 98 52 31 25 27 36 54 59 75 23 77 63 56 -26 -6 46 64 42 9 76 69 43 -67 99 166 223 264
1 9 11 22 35 45 49 50 41 39 34 18 0 -10 -11 -65 19 162 85 48 33 23 28 16 34 57 25 83 41 60 27 -37 -62 -33 68 36 35 9 83 109 60 -2 309 72 350
4 8 10 22 35 49 50 40 42 40 22 8 -4 -35 -59 -41 4 103 33 31 14 18 39 45 67 57 103 93 74 47 4 -8 -105 -78 65 18 27 12 22 35 -41 59 -9 42 113
4 11 11 21 35 47 38 19 37 36 19 2 -13 -27 -13 40 132 45 37 28 36 44 45 55 53 91 138 51 17 10 17 -28 -38 -33 28 64 -16 36 82 30 -4 -21 174 11 26
-2 9 10 22 33 43 23 13 37 35 25 14 -10 -21 55 139 81 27 53 51 23 51 59 47 89 76 91 59 -1 61 11 7 -42 -9 -2 8 28 -19 130 18 25 -40 -14 30 56
0 7 10 19 25 38 19 9 34 45 39 11 8 33 36 121 96 74 47 52 58 46 73 50 44 68 39 56 31 23 95 58 68 27 24 -45 25 9 18 1 17 15 -145 60 132
4 12 14 17 12 27 -3 -10 15 46 43 14 8 38 50 179 99 93 63 13 46 24 64 47 40 19 44 133 150 112 71 -9 51 54 11 42 65 99 60 30 4 -22 -11 -54 -128
7 15 17 14 3 19 -17 -22 20 29 36 0 -7 53 91 112 69 17 58 51 28 33 24 71 48 42 55 61 -71 9 -44 -31 9 64 18 -5 78 81 29 3 -56 18 2 -15 -23
17 20 19 13 -1 12 -26 -6 17 30 63 33 20 53 116 85 46 74 5 58 65 56 36 93 84 91 96 73 -1 -87 -18 5 46 3 19 21 76 33 49 28 23 48 41 -4 -24
23 27 21 17 9 11 15 29 22 118 159 169 45 26 72 65 45 70 45 16 53 28 162 62 130 112 63 46 28 -25 -20 -12 54 -13 35 35 61 22 -3 94 69 74 81 19 -45
18 29 23 16 10 18 8 53 102 112 144 43 60 48 41 66 83 71 30 78 84 145 76 150 143 40 29 51 8 -33 -53 -77 44 29 74 57 89 27 -40 -17 43 66 93 112 45
25 20 26 24 17 -3 77 83 56 71 120 91 69 82 41 73 94 95 62 45 75 120 135 144 86 21 41 83 -24 -45 -29 -10 52 107 109 108 49 -30 -7 42 77 83 126 168 89
27 20 31 8 24 66 103 67 66 57 175 72 66 97 67 40 97 80 67 77 95 89 110 100 47 32 55 29 -35 -3 23 44 39 88 53 53 34 112 90 89 88 71 129 218 195
29 27 32 28 32 88 76 70 61 60 145 103 107 59 64 80 88 56 61 54 131 69 87 86 42 30 45 13 45 43 132 79 88 70 100 26 19 243 89 182 128 82 130 206 300
33 37 11 19 88 73 67 60 60 113 156 143 131 97 95 78 87 38 68 50 73 62 69 45 8 58 45 35 23 45 55 76 58 46 58 -15 36 184 167 90 118 64 177 205 423
44 59 53 37 72 64 62 84 110 132 107 108 129 96 124 122 94 62 100 109 91 106 165 81 31 39 -6 34 -12 123 123 -1 10 59 26 -17 17 123 76 76 106 82 212 191 459
46 37 45 76 39 54 65 85 156 98 117 116 106 74 145 134 82 53 76 63 91 105 104 123 86 5 22 6 33 43 61 -22 58 93 39 16 8 4 7 94 135 79 92 190 491
33 36 39 54 36 49 75 115 99 122 97 91 81 127 126 127 83 90 103 75 84 78 127 100 48 30 1 39 9 40 47 100 77 191 78 23 56 61 206 218 242 153 152 307 663
41 41 66 43 38 47 104 108 100 91 92 82 122 147 131 118 144 105 77 84 79 68 91 63 59 -1 27 23 57 2 50 63 95 42 77 23 48 131 210 228 266 193 184 316 627
39 46 54 49 49 104 106 108 111 95 82 114 123 126 134 125 102 80 81 117 87 71 48 51 73 68 6 23 71 38 46 61 96 40 144 45 59 124 137 155 209 205 170 302 583
39 85 60 45 105 88 105 96 72 93 82 96 102 99 117 93 103 74 91 114 86 56 67 60 42 91 39 31 -4 48 34 64 85 93 247 99 100 124 123 140 177 198 214 300 372
59 70 52 52 108 111 104 105 93 86 101 98 115 97 76 76 128 74 89 118 95 82 63 52 52 65 18 13 1 42 97 85 90 78 133 132 112 52 119 165 197 218 250 332 414
49 100 77 98 102 126 112 116 114 71 89 67 86 63 105 93 104 76 76 96 80 84 42 25 52 50 55 18 32 75 96 59 80 43 162 74 116 147 195 243 265 252 223 298 344
72 82 74 114 122 153 116 90 118 105 69 54 78 105 119 128 99 109 96 77 76 86 48 50 59 31 24 12 54 36 59 77 37 96 43 142 73 89 187 262 287 183 227 249 377
97 96 120 123 139 139 102 101 114 93 81 109 95 88 90 129 132 108 104 76 73 61 78 39 60 34 12 19 29 44 43 82 28 71 53 84 47 90 158 174 137 169 224 247 320
107 120 125 97 125 120 114 107 91 81 72 86 74 79 70 109 87 50 53 42 52 61 65 62 48 51 45 12 12 27 15 62 69 14 61 55 129 187 179 174 155 121 151 222 263

GFSSW_con_3kmhel_264.txt.gz
Helicity
-6 0 1 7 12 25 32 34 41 52 43 40 27 10 -1 13 28 28 33 62 66 53 60 94 109 99 90 104 120 176 241 227 186 120 80 43 94 103 66 -79 -85 -233 -179 -72 221
-1 2 9 11 14 28 31 36 44 52 47 39 25 11 2 19 81 73 50 46 52 60 113 163 170 123 147 117 107 213 233 171 123 77 44 70 74 110 -12 51 -61 -259 -315 -255 24
1 7 16 13 12 23 31 34 41 52 44 32 24 9 -12 32 104 94 32 47 62 62 118 150 119 171 160 109 87 150 169 127 65 45 0 40 57 57 39 69 -13 -273 -426 -404 -41
10 10 13 15 14 21 34 36 39 52 46 22 20 9 -5 55 40 104 39 57 71 60 122 153 175 194 131 143 86 136 109 71 103 77 9 -32 -13 5 22 135 59 -53 -461 -514 -124
14 14 16 15 8 18 32 37 49 66 51 18 11 -8 48 79 69 127 57 107 88 88 154 194 202 160 149 100 83 105 84 77 129 100 73 1 -8 6 11 36 31 28 -270 -407 -196
10 14 16 14 9 22 30 34 53 70 51 27 34 12 49 69 122 115 87 163 155 123 115 136 170 110 90 113 100 128 57 106 44 94 43 10 23 -1 35 5 2 -20 -214 -515 -200
12 15 18 9 4 23 22 22 49 47 23 14 13 40 75 52 90 102 93 156 145 111 184 94 105 136 100 95 106 97 17 74 43 43 6 7 31 19 119 88 46 -16 -173 -229 -129
13 16 16 4 4 22 19 34 60 65 18 -4 6 47 47 101 56 101 92 94 167 99 115 73 73 97 110 97 93 80 25 2 111 32 8 36 60 105 92 159 70 -61 -101 -235 -71
16 16 16 12 0 19 8 5 51 65 26 -9 47 61 25 60 66 102 142 97 116 148 74 79 88 100 78 142 93 64 32 39 14 50 2 0 58 30 56 57 75 -21 -64 -113 -15
17 15 17 10 11 14 -9 34 72 73 31 10 40 62 84 110 93 101 158 126 109 135 204 153 127 114 120 108 99 43 -12 20 27 36 60 12 88 24 87 81 110 118 84 27 -9
21 21 15 15 24 7 56 81 101 88 112 17 36 53 95 94 60 96 170 64 119 206 192 117 204 180 106 125 90 22 -25 -28 67 1 57 35 9 54 86 197 309 287 259 180 125
16 16 19 19 38 33 70 102 86 102 136 3 24 56 98 95 88 84 79 115 121 126 133 171 180 118 105 68 51 29 -8 -46 17 100 10 23 10 75 86 106 301 321 298 246 227
17 11 14 18 49 52 49 64 58 72 108 30 46 49 59 92 98 108 99 43 87 170 161 152 115 73 86 54 -6 35 14 23 82 117 38 2 3 92 187 157 359 342 338 271 224
21 11 13 17 77 57 59 34 53 57 115 30 38 60 69 81 133 108 86 78 124 127 99 98 92 63 79 32 23 44 85 135 95 36 46 78 17 22 168 159 288 262 307 289 294
26 16 20 63 60 62 53 38 31 34 53 48 59 66 90 104 106 106 64 66 158 73 101 99 108 77 52 39 34 139 196 115 29 61 39 -5 -2 181 91 151 247 217 230 330 329
30 31 48 54 53 44 44 28 29 63 33 59 69 87 90 92 110 90 90 47 59 68 67 68 39 61 63 100 42 138 115 21 12 33 98 10 20 99 62 99 160 201 227 402 308
37 39 46 43 45 41 58 30 66 68 53 65 86 91 113 90 114 141 145 159 141 178 162 70 51 54 -23 88 79 120 45 -45 -78 -45 45 -17 27 56 80 66 110 171 293 364 286
51 51 62 38 34 55 44 63 89 59 50 61 84 82 139 94 128 125 157 125 106 122 116 134 98 59 40 26 86 44 36 15 -145 -10 109 18 60 29 -23 62 117 142 234 294 364
59 54 60 37 37 59 69 83 66 59 47 50 61 111 104 112 146 170 145 133 91 107 136 99 73 71 51 51 7 32 48 69 51 45 11 15 36 -20 143 162 230 231 294 391 471
71 61 61 27 44 56 88 63 61 44 34 57 88 97 105 89 131 171 139 102 80 80 91 101 77 69 31 43 76 23 70 35 54 37 51 -5 1 87 250 249 235 272 341 415 529
76 83 51 36 39 81 96 56 56 40 32 61 82 102 112 112 127 142 119 110 80 69 83 116 138 92 35 4 43 28 80 73 49 -17 23 57 9 -21 45 129 176 197 339 397 433
75 93 49 37 79 71 70 54 67 46 43 50 89 96 103 117 138 139 138 120 61 80 92 78 121 120 89 47 40 -3 41 63 48 54 34 42 20 -31 -61 27 69 139 312 336 428
97 84 55 48 111 86 51 70 73 64 44 58 87 79 92 115 139 129 124 105 82 83 79 76 98 91 82 25 22 17 89 77 24 18 40 53 12 26 -2 69 71 128 336 326 472
100 114 98 90 73 85 79 75 88 58 52 59 84 84 115 132 121 113 102 87 67 61 57 94 113 138 137 99 39 43 88 72 33 10 71 25 135 81 124 137 111 144 281 287 417
122 92 93 97 80 103 98 92 109 71 43 49 77 84 127 121 97 112 95 79 98 46 64 95 122 105 89 28 -5 39 15 69 20 18 -5 95 95 54 122 163 128 77 192 253 380
119 100 134 117 129 158 96 65 108 78 78 53 80 91 111 115 113 98 124 112 99 62 81 72 94 82 79 62 -11 32 16 34 -6 23 5 56 30 50 124 101 66 54 158 224 364
99 126 114 95 108 118 81 95 69 109 56 55 72 107 86 84 113 90 84 104 93 114 84 83 92 108 85 37 33 8 12 2 39 -5 19 14 93 131 169 137 57 31 120 184 321

GFSSW_con_3kmhel_267.txt.gz
Helicity
1 3 9 9 6 2 -2 16 41 56 56 53 47 31 17 20 34 11 5 49 65 92 67 90 133 132 124 167 164 211 329 262 215 163 138 50 78 73 93 76 74 -48 -191 -219 -323
4 7 14 12 9 4 8 29 42 50 47 40 40 25 11 32 83 48 24 10 55 79 95 141 180 139 190 178 164 215 253 166 142 145 138 23 17 84 60 107 49 31 -99 -230 -544
9 10 16 14 8 7 18 47 50 54 46 37 28 18 5 85 88 66 14 24 55 98 109 171 169 186 209 182 148 160 179 166 90 139 131 5 32 1 -4 39 91 57 -214 -381 -800
10 17 18 17 12 13 24 48 58 69 46 31 17 5 25 86 54 75 31 25 38 114 161 184 218 230 227 228 112 203 124 122 104 132 104 62 11 23 -25 61 46 26 -112 -399 -839
10 15 21 21 13 17 27 42 55 72 52 31 21 -4 71 79 71 128 48 50 90 126 171 204 223 213 210 143 133 156 118 57 98 105 111 28 49 38 42 53 38 33 -100 -405 -834
17 14 22 20 15 17 27 35 44 53 44 21 16 23 84 64 114 114 93 146 137 154 127 106 163 138 113 131 146 131 96 63 53 50 70 45 9 14 120 101 33 -2 -140 -314 -771
17 17 18 18 21 12 29 38 47 39 19 9 24 38 89 57 124 128 93 171 146 131 124 97 107 168 132 106 91 124 86 69 32 36 3 35 -22 26 105 112 100 23 -63 -233 -499
9 14 13 16 23 10 23 39 38 47 18 5 41 47 41 90 114 114 102 131 178 97 81 71 84 113 121 94 98 76 57 35 84 15 33 14 9 11 85 60 85 5 -55 -215 -309
7 12 9 13 25 11 9 29 40 33 22 -11 46 50 22 48 74 148 126 86 60 119 89 69 103 115 112 115 91 93 78 28 37 28 47 26 8 17 137 141 274 92 4 -116 -166
16 7 7 15 20 8 24 69 58 45 12 18 43 47 64 76 90 142 129 102 79 102 149 172 134 157 121 109 120 110 79 64 29 10 52 8 9 19 116 151 344 289 180 144 128
14 16 10 19 27 25 57 90 87 90 123 12 14 52 93 63 82 95 83 55 101 201 204 121 208 160 116 109 85 113 80 57 78 40 13 23 40 47 107 247 424 304 227 150 141
20 19 11 21 38 41 67 106 86 100 124 -6 15 34 58 68 70 70 63 106 132 175 139 201 187 105 102 62 52 42 40 12 50 35 26 9 29 58 137 209 298 248 271 191 182
24 23 15 15 56 53 62 81 86 83 101 12 33 36 49 71 74 71 89 54 126 213 222 192 117 67 101 73 7 56 50 62 78 69 33 17 -11 127 248 225 311 328 278 214 100
36 25 17 39 69 37 50 46 68 63 112 28 33 44 56 65 96 108 87 70 143 199 140 157 110 89 73 67 27 65 73 87 74 26 11 24 20 64 250 255 347 332 307 263 161
44 35 56 65 68 56 49 51 43 36 66 42 36 52 43 85 81 79 81 104 178 118 149 160 123 97 119 65 40 130 153 53 -8 -12 -0 34 -10 114 127 211 302 298 200 251 258
55 45 42 55 59 42 45 53 48 84 68 75 60 50 60 56 67 80 90 51 101 108 113 106 65 74 139 155 53 142 51 -6 -0 -28 -9 61 13 -14 101 133 188 186 152 227 320
61 66 48 48 45 42 53 56 96 103 65 73 71 55 74 62 59 77 74 86 112 162 217 86 119 56 46 152 78 72 3 -50 -27 -1 13 -6 10 -9 68 81 77 103 160 294 280
73 66 61 49 36 48 55 91 120 91 64 63 69 57 85 63 74 71 101 95 124 147 163 210 172 84 58 42 73 3 1 -60 -48 -1 40 14 37 -8 11 38 76 82 119 218 291
75 60 53 42 37 42 87 123 115 79 68 69 69 94 60 74 89 111 101 105 112 120 205 153 80 88 72 27 7 15 16 9 -20 -23 -3 9 -6 -33 115 123 147 163 157 293 337
69 67 54 39 43 51 115 123 120 65 70 56 86 73 71 54 87 106 86 110 104 117 110 114 87 95 51 30 71 -10 12 -10 38 3 37 8 22 101 226 234 194 223 186 333 454
70 90 55 42 51 109 123 126 97 68 61 77 86 89 72 62 72 87 77 95 106 96 105 121 141 72 83 57 37 -30 23 18 -8 -34 -4 25 16 -7 42 93 122 148 184 272 391
88 155 59 53 102 114 130 111 87 76 73 71 79 77 69 70 73 79 88 117 87 99 96 91 123 86 103 34 21 -18 -4 24 5 11 -15 4 -10 -24 -51 3 43 58 159 225 357
140 144 67 71 118 133 113 121 100 86 82 74 82 56 54 72 83 80 94 134 94 99 81 89 107 90 83 67 42 17 17 26 9 -21 -11 11 17 9 4 59 37 71 184 210 370
162 221 130 114 120 124 123 128 118 93 94 84 81 75 85 66 91 109 105 116 79 85 72 115 126 141 147 115 86 52 8 37 4 -8 23 -2 108 67 102 142 109 100 198 215 265
214 212 160 128 105 142 136 111 130 109 92 66 81 65 79 80 93 121 109 94 110 77 86 125 116 131 108 77 70 44 4 21 -6 -31 -24 42 62 41 115 151 48 56 167 195 311
233 201 128 120 142 172 118 73 129 125 114 71 82 90 79 98 110 109 143 123 123 83 97 98 107 126 126 133 79 100 14 -11 -22 -24 -25 35 30 59 109 65 8 8 119 212 303
234 139 159 102 130 121 78 97 102 148 88 67 80 114 80 79 105 109 106 107 100 120 87 119 122 120 104 114 103 81 32 11 -7 -29 -16 -21 87 138 161 131 28 -9 57 169 303

GFSSW_con_3kmhel_273.txt.gz
Helicity
11 13 12 5 3 2 10 21 33 48 46 34 14 0 8 19 47 62 14 63 -4 -9 100 77 106 50 107 136 132 160 219 227 220 208 148 65 37 46 74 70 6 11 10 22 64
13 11 11 7 8 7 10 18 27 43 41 29 6 -5 0 50 46 52 61 7 13 36 122 65 44 96 108 134 144 199 246 184 154 164 111 41 31 84 51 51 40 2 3 13 5
19 15 9 9 12 6 11 26 23 45 35 22 4 -9 14 62 43 44 45 7 13 90 93 63 62 79 136 72 151 204 196 194 93 111 55 57 82 43 4 10 24 61 71 57 7
23 18 13 9 5 14 6 9 30 36 38 17 6 0 40 40 31 69 14 0 42 74 90 72 100 132 121 125 163 201 112 118 116 64 27 30 28 -32 3 6 47 53 23 28 23
29 24 14 9 -4 15 16 -1 33 30 31 0 3 10 20 4 16 97 -14 55 99 100 110 120 146 123 172 132 116 128 128 44 56 49 47 87 60 -20 38 86 44 72 -34 -23 0
30 23 16 8 4 14 25 4 36 34 25 11 -1 15 24 11 50 75 28 83 108 101 87 97 118 84 93 116 117 96 68 35 5 33 47 85 23 -33 45 36 59 141 48 -26 -34
33 22 13 11 8 11 22 9 40 43 30 17 -2 37 35 -1 62 72 99 68 72 87 118 73 69 115 97 55 88 58 89 -20 21 57 48 42 45 -31 26 41 138 192 197 45 32
38 27 13 13 4 6 6 13 37 36 25 12 7 45 27 44 56 53 102 89 73 93 74 44 53 104 117 53 62 83 74 74 52 9 31 48 33 -24 31 67 79 194 142 101 50
35 27 17 12 6 8 19 25 36 56 59 32 15 39 19 34 40 110 82 62 50 101 100 55 103 143 105 134 136 87 110 87 59 19 44 12 -38 -36 23 94 159 184 145 86 102
36 28 22 12 11 16 29 38 59 61 38 40 21 27 19 16 37 105 81 80 83 77 103 113 125 183 159 151 200 126 98 111 85 55 92 31 2 -2 36 114 157 184 185 161 154
42 35 23 16 9 39 48 48 50 68 152 117 51 10 26 18 38 60 65 47 71 133 91 76 210 126 123 113 103 88 110 100 74 125 132 78 -74 6 85 230 263 223 182 216 239
45 36 24 17 14 50 50 60 60 100 159 112 21 6 35 35 49 78 44 87 79 44 21 121 145 112 92 132 95 50 70 63 2 131 76 123 34 -38 111 199 194 153 169 185 249
39 36 33 15 39 48 33 42 61 88 123 101 4 37 32 31 38 14 31 44 61 69 94 115 113 91 159 128 149 67 88 6 33 47 62 62 106 26 194 277 272 260 226 229 191
53 44 52 0 45 6 28 17 48 73 122 34 11 44 38 15 62 36 41 53 72 90 83 106 98 132 156 136 118 109 82 -23 22 66 51 49 35 -7 200 345 262 298 312 291 282
70 53 77 36 40 12 21 22 42 62 66 28 57 29 44 51 21 36 45 62 64 76 93 80 105 101 199 117 97 112 -17 14 32 50 47 47 26 33 158 330 314 210 241 313 308
79 58 44 56 34 1 17 19 45 79 48 82 55 50 56 54 55 33 41 21 58 73 79 112 52 75 148 110 126 92 31 34 25 29 -2 46 43 -16 88 131 171 147 280 361 362
104 102 82 56 53 1 28 33 66 83 67 59 62 62 72 49 63 39 36 -5 -10 43 102 92 125 79 123 145 49 54 92 51 38 24 -36 -2 3 -47 34 50 41 101 264 352 356
96 98 141 110 9 14 42 64 89 68 73 69 65 69 77 39 66 42 53 38 56 83 148 140 141 125 83 117 97 76 48 63 90 30 10 -6 20 -28 -1 8 15 40 139 240 328
133 168 145 152 79 22 52 105 61 61 76 78 70 80 63 55 74 75 42 43 44 76 123 171 146 81 98 69 86 61 120 32 19 12 11 6 2 22 29 103 91 149 197 298 358
198 143 165 143 100 53 139 88 68 74 81 65 70 69 64 58 65 72 35 62 61 89 99 144 177 112 70 59 80 85 57 68 14 -9 -24 14 18 52 133 237 146 136 257 330 336
219 152 170 135 141 187 146 114 65 92 82 72 75 82 84 72 66 71 44 85 83 103 120 137 177 110 107 133 104 76 90 69 16 8 -3 2 17 -41 11 78 128 69 187 261 319
197 183 188 168 205 206 173 138 53 80 88 79 91 87 88 64 79 70 67 102 82 115 122 111 170 160 136 57 68 76 90 91 97 16 21 18 18 -82 -63 3 -3 54 109 182 231
316 241 215 177 141 179 169 185 120 65 71 75 83 80 70 74 81 62 82 106 101 102 113 100 153 187 163 127 107 122 103 76 37 20 12 5 23 -38 -11 36 4 29 66 137 239
239 225 257 231 224 204 194 181 195 62 89 97 92 101 88 78 64 78 86 113 104 93 99 120 158 217 240 194 152 112 102 87 83 59 26 -3 54 65 76 113 105 54 28 77 185
333 241 223 121 150 234 229 166 207 134 91 78 87 80 85 83 69 67 90 122 121 75 116 128 195 166 116 87 123 130 125 93 105 57 20 10 26 79 84 126 95 57 46 51 123
291 258 277 190 232 276 180 133 205 178 87 67 81 100 85 79 59 53 118 110 116 117 130 92 190 157 154 124 130 116 120 81 83 51 8 5 5 -9 77 44 19 23 53 44 105
308 356 280 152 209 225 182 191 202 193 92 91 102 128 95 85 86 106 121 137 148 142 132 146 167 203 165 136 132 135 129 117 85 55 31 -1 4 73 125 113 48 33 43 28 62